HULIANWAN GAOGUI-02 (H*)

Last updated on Mon Oct 14 2024 00:02:42 GMT+0000 (Coordinated Universal Time)

1 60327U 24135A 24287.54934951 -.00000175 00000+0 00000+0 0 9998 2 60327 0.0257 5.1221 0002735 236.4045 131.9595 1.00269785 1367
UTC large
Height (km)
Speed (km/s)
/
Latitude / Longitude
Inclination (degrees)
Orbital Period (minutes)
Azimuth
Elevation
Range (km)
Doppler Factor

Next 0 passes for location: London (51.5072 / 0.1276)

Sorry there are no passes over London.